1st November 2019 | Cape Town, South Africa

FNB Wines2Whales Shiraz (2019)

Stage 1 Teams: Mixed

Pos Team Name # Members Team Time Overall Pos
1 Fairtree 2 03:13:58 34
2 Giordana 2 03:14:57 37
3 PITSTOP SPORT 2 2 03:19:09 46
4 LinAqua 2 03:20:34 48
5 Landrover ENL 2 03:28:14 63
6 Valley electrical titan racing mixed 2 03:31:13 69
7 Fruitways 2 03:35:01 77
8 Bike Hub 2 03:37:50 84
9 booking.com 2 03:40:30 92
10 Gingaroo 2 03:47:00 104
11 Avontuur 2 03:50:49 119
12 Mauritius 2 03:50:52 120
13 Tanya & Aubs 2 03:52:35 125
14 Daneel Ducks 2 03:55:55 141
15 Hollard Mixed 2 03:58:47 154
16 Benko 2 04:05:29 177
17 Overberg MTB Events 2 04:08:59 187
18 Team Dormakaba 4 2 04:11:08 193
19 Hermanus Pharmacies 2 04:11:24 194
20 Team GSD 2 04:14:17 210
21 80s kids 2 04:14:54 213
22 Abecrombe and Fitch 2 04:16:16 225
23 King Price Mixed 2 04:20:22 240
24 Imparables 2 2 04:21:37 247
25 Investec Impi 2 04:22:22 252
26 The Wheel Thing 2 04:22:26 253
27 Exxaro / PwC2 2 04:28:23 273
28 PODIT 2 04:35:06 296
29 Goldfields Wifi & Fibre 2 04:41:06 317
30 Fair Cape Mixed 2 04:44:25 325
31 Noble Savages 2 04:45:02 327
32 Yin & Yang 2 04:55:46 357
33 Double Dip 2 04:58:08 366
34 Funny Farmers 2 04:59:15 372
35 Beeld 2 04:59:23 373
36 Princeton 2 04:59:23 374
37 BIKEWAHN-Racing 2 05:00:03 377
38 Airborne 2 05:05:31 396
39 AdventuRas 2 05:06:33 401
40 the Beard & the Babe 2 05:07:46 404
41 Wilger 64 2 05:09:21 406
42 Flower Pedal 2 05:13:22 414
43 LEEHAN 2 05:14:16 416
44 TREAD - MTB With Soul 2 05:15:35 422
45 Whine2Wine 2 05:19:27 430
46 Young Gilletts 2 05:21:22 433
47 Ibhayi Masters 2 05:33:28 454
48 Spumble 2 05:33:35 455
49 Olerotweiss 2 05:33:39 456
50 Khombisa 2 05:35:14 459
51 Exxaro Academy 2 05:41:04 469
52 Safar's 2 05:44:35 476
53 Swakop 2 05:45:56 478
54 KZN 2 05:46:38 479
55 Fishy-Brinks 2 05:48:48 482
56 Talisman and a Lady 2 05:53:44 486
57 TwinIsh 2 05:59:33 493
58 G.I & Jo 2 06:08:35 501
59 The Sweepers 2 06:09:22 506
60 Bold & The Beautiful 2 06:11:08 509
61 Wing It 2 06:32:02 523
62 Just 4Fun 2 06:33:58 524
63 Kinetic Racing Snakes2 2 07:04:42 532
64 Los Perdidos 2 07:25:13 533
65 Sister Soweto 2 07:41:37 535